[[{"header":{"parameterUnit":"m.s-1","parameterCategory":1,"la1":30.2991,"la2":30.254,"lo1":-89.0895,"lo2":-89.0444,"dy":0.0017,"dx":0.0017,"nx":28,"ny":28,"refTime":"2025-08-24T03:00:00:Z","depth":0,"parameterNumber":2,"parameterNumberName":"U-component_of_WINDS"},"data":[0,0,0,0,0,0,0,0,0,0,0,0,0,0,0,0,0,0,0,0,0,0,0,0,0,0,0,0,0,0,0,0,0,0,0,0,0,0,0,0,0,0,0,0,0,0,0,0,0,0,0,0,0,0,0,0,0,0,2.6508,2.6509,0,2.6616,2.6618,2.6619,2.6565,2.6562,2.6559,2.6556,2.6672,2.6677,2.6683,0,0,0,0,0,0,0,0,0,0,0,0,0,2.6258,2.6263,2.6507,2.6509,2.651,2.6616,2.6618,2.6619,2.6565,2.6562,2.6558,2.6555,2.667,2.6677,2.6683,0,0,0,0,0,0,0,0,0,0,0,0,0,2.6366,2.6264,2.6507,2.6496,2.6496,2.6616,2.6618,2.6619,2.6566,2.6562,2.6557,2.6553,2.6668,2.6676,2.6684,2.6823,0,0,2.6711,2.6714,0,0,0,0,0,0,0,0,2.636,2.6376,2.6496,2.6497,2.6497,2.6572,2.6572,2.6688,2.6567,2.654,2.6556,2.6551,2.6642,2.6653,2.6683,2.6828,2.6833,2.6711,2.6717,2.672,2.6723,0,0,0,0,0,0,0,2.6353,2.6371,2.6551,2.6498,2.6499,2.6487,2.6498,2.6594,2.6614,2.6542,2.6538,2.6551,2.6642,2.6675,2.6685,2.6835,2.6711,2.6719,2.6724,2.6727,2.7102,2.7106,0,0,0,0,0,0,2.6345,2.6365,2.6547,2.6554,2.6417,2.6495,2.6507,2.6553,2.6612,2.6617,2.6555,2.6548,2.6662,2.6675,2.6689,2.6856,2.672,2.6728,2.6733,2.7097,2.7103,2.7108,0,0,0,0,0,0,2.634,2.6362,2.6543,2.6458,2.648,2.6504,2.6556,2.6557,2.659,2.6622,2.6626,2.6584,2.6659,2.6677,2.679,2.6859,2.6732,2.674,2.7091,2.7099,2.7106,2.7191,0,0,0,0,0,0,2.6333,2.636,2.6412,2.646,2.6485,2.6641,2.656,2.6562,2.6604,2.6597,2.6651,2.6656,2.6657,2.6778,2.6799,2.6869,2.6747,2.7085,2.7095,2.7103,2.7182,2.72,2.7216,0,0,0,0,0,2.6324,2.6432,2.6415,2.6437,2.655,2.6645,2.6659,2.6658,2.661,2.6663,2.6684,2.6654,2.6848,2.679,2.6813,2.6887,2.7081,2.7092,2.7103,2.7175,2.7197,2.7215,0,0,0,0,0,0,2.6393,2.6438,2.6419,2.6546,2.6592,2.6635,2.6702,2.6681,2.6742,2.6733,2.6729,2.6742,2.686,2.6885,2.6818,2.7025,2.6958,2.6974,2.7004,2.7026,2.7042,2.7034,2.6754,0,0,0,0,0,2.6422,2.6494,2.653,2.6639,2.6662,2.6679,2.672,2.6714,2.6763,2.6782,2.6812,2.6861,2.6933,2.6981,2.7049,2.7186,2.7198,2.7248,2.7265,2.7278,2.7293,2.7369,2.7392,2.7144,2.7143,2.7143,0,0,2.6484,2.6518,2.6564,2.6653,2.6688,2.6765,2.6695,2.6778,2.6836,2.6795,2.6904,2.6928,2.6982,2.7109,2.7166,2.7133,2.7364,2.7292,2.7303,2.731,2.7382,2.7406,2.7427,2.7151,2.715,2.7148,0,0,2.6636,2.6669,2.6763,2.6799,2.6853,2.6863,2.6886,2.6934,2.6948,2.7057,2.7029,2.7097,2.7221,2.7262,2.7299,2.7469,2.7444,2.7491,2.7579,2.7654,2.7673,2.7691,2.7753,2.7775,2.7505,2.7505,2.7505,0,2.6707,2.682,2.6814,2.69,2.6941,2.6907,2.7004,2.704,2.7114,2.7144,2.7106,2.7262,2.7296,2.7432,2.7474,2.7505,2.7532,2.7485,2.7671,2.7688,2.7704,2.7764,2.7787,2.7511,2.751,2.751,2.7509,0,2.6905,2.6983,2.7053,2.7125,2.7174,2.7265,2.7275,2.7325,2.7316,2.7331,2.7444,2.7484,2.7561,2.7592,2.7585,2.7729,2.7707,2.767,2.7602,2.7734,2.7789,2.7812,2.7518,2.7517,2.7515,2.7514,0,0,2.7102,2.717,2.7196,2.7229,2.7287,2.7348,2.7439,2.7513,2.7557,2.761,2.7687,2.7793,2.776,2.7802,2.7799,2.7864,2.7998,2.7819,2.7821,2.7853,2.8162,2.819,2.8216,2.7982,2.7987,2.799,2.8158,0,2.726,2.7416,2.7415,2.7561,2.7634,2.7604,2.7683,2.7728,2.7745,2.7812,2.7831,2.7907,2.7856,2.7882,2.7945,2.7968,2.8061,2.7956,2.8056,2.806,2.8044,2.8245,2.8275,2.8431,2.8179,2.8183,2.8186,0,2.7464,2.7522,2.7675,2.7724,2.7755,2.7826,2.7894,2.7957,2.8009,2.8017,2.8065,2.8052,2.8146,2.8075,2.8207,2.8136,2.8177,2.8195,2.8201,2.8211,2.8131,2.8262,2.8481,2.8505,2.822,2.8217,2.8215,0,2.7594,2.7712,2.7819,2.7848,2.7907,2.7957,2.7985,2.8032,2.8077,2.8138,2.8167,2.8239,2.8278,2.8335,2.8342,2.829,2.8475,2.8404,2.8486,2.8486,2.8527,2.8525,2.8757,2.8552,2.8551,2.8551,2.855,0,2.777,2.7866,2.7878,2.7945,2.8051,2.805,2.8156,2.8179,2.8221,2.8293,2.8271,2.8339,2.8344,2.8415,2.8422,2.8531,2.8549,2.8559,2.856,2.8562,2.8561,2.8589,2.8579,2.8557,2.8556,2.8554,2.8553,0,2.7934,2.7947,2.8062,2.8108,2.8122,2.8199,2.8239,2.8304,2.8319,2.841,2.8431,2.8455,2.8538,2.8551,2.8647,2.8652,2.8783,2.8772,2.8766,2.8765,2.8846,2.8839,2.9106,2.9142,2.8912,2.8914,2.8916,0,2.8047,2.8119,2.8173,2.8219,2.8249,2.8323,2.8369,2.8371,2.842,2.8485,2.8542,2.8622,2.8686,2.8819,2.8847,2.8922,2.8913,2.9002,2.8924,2.8925,2.8917,2.8913,2.8921,2.9017,2.9019,2.9021,2.9023,0,2.8245,2.8248,2.8314,2.8384,2.8439,2.8494,2.8546,2.8585,2.8594,2.8651,2.8734,2.8784,2.8883,2.8963,2.9038,2.9067,2.9049,2.9047,2.907,2.9074,2.9068,2.9074,2.8808,2.9041,2.9039,2.9038,2.9037,2.9036,2.8388,2.8451,2.85,2.8575,2.8614,2.8664,2.8727,2.875,2.8819,2.8899,2.8896,2.8989,2.9041,2.9138,2.9173,2.9247,2.9219,2.9252,2.9261,2.9269,2.9278,2.9055,2.926,2.926,2.9259,2.9259,2.9259,0,2.8586,2.8616,2.8685,2.8759,2.8819,2.8793,2.885,2.8903,2.8984,2.9033,2.9096,2.9194,2.9272,2.9306,2.9384,2.9436,2.943,2.9457,2.9454,2.9462,2.9298,2.9271,2.9461,2.9461,2.9461,2.9461,2.9461,2.9461,2.8697,2.8804,2.8813,2.894,2.897,2.9059,2.9094,2.914,2.918,2.9289,2.9353,2.9375,2.9419,2.95,2.9572,2.958,2.961,2.9642,2.9647,2.9493,2.9473,2.9453,2.9428,2.9648,2.9649,2.9805,2.9806,2.9807]},{"header":{"parameterUnit":"m.s-1","parameterCategory":1,"la1":30.2991,"la2":30.254,"lo1":-89.0895,"lo2":-89.0444,"dy":0.0017,"dx":0.0017,"nx":28,"ny":28,"refTime":"2025-08-24T03:00:00:Z","depth":0,"parameterNumber":3,"parameterNumberName":"V-component_of_WINDS"},"data":[0,0,0,0,0,0,0,0,0,0,0,0,0,0,0,0,0,0,0,0,0,0,0,0,0,0,0,0,0,0,0,0,0,0,0,0,0,0,0,0,0,0,0,0,0,0,0,0,0,0,0,0,0,0,0,0,0,0,1.0272,1.0272,0,1.029,1.029,1.029,1.0282,1.0282,1.0281,1.0281,1.0298,1.0299,1.03,0,0,0,0,0,0,0,0,0,0,0,0,0,1.0229,1.023,1.0272,1.0272,1.0272,1.029,1.029,1.029,1.0282,1.0282,1.0281,1.0281,1.0298,1.0299,1.03,0,0,0,0,0,0,0,0,0,0,0,0,0,1.0247,1.023,1.0272,1.0271,1.0271,1.029,1.029,1.029,1.0283,1.0282,1.0281,1.0281,1.0297,1.0299,1.03,1.0321,0,0,1.0304,1.0304,0,0,0,0,0,0,0,0,1.0246,1.0249,1.0271,1.0271,1.0271,1.0283,1.0281,1.0301,1.0283,1.0278,1.0281,1.028,1.0294,1.0295,1.03,1.0322,1.0322,1.0304,1.0305,1.0305,1.0306,0,0,0,0,0,0,0,1.0245,1.0248,1.0279,1.0271,1.0271,1.0269,1.027,1.0285,1.0289,1.0278,1.0278,1.028,1.0293,1.0299,1.03,1.0323,1.0304,1.0305,1.0306,1.0306,1.0362,1.0362,0,0,0,0,0,0,1.0244,1.0247,1.0278,1.028,1.0257,1.027,1.0272,1.028,1.0289,1.029,1.0281,1.028,1.0297,1.0299,1.0301,1.0325,1.0305,1.0306,1.0307,1.0361,1.0362,1.0363,0,0,0,0,0,0,1.0243,1.0247,1.0278,1.0263,1.0267,1.0271,1.028,1.0281,1.0286,1.0291,1.0291,1.0285,1.0296,1.0299,1.0316,1.0326,1.0307,1.0308,1.036,1.0361,1.0362,1.0375,0,0,0,0,0,0,1.0242,1.0247,1.0255,1.0264,1.0268,1.0293,1.0281,1.0281,1.0288,1.0287,1.0295,1.0296,1.0296,1.0314,1.0317,1.0327,1.0309,1.0359,1.0361,1.0362,1.0374,1.0377,1.0379,0,0,0,0,0,1.0241,1.0258,1.0256,1.026,1.0279,1.0294,1.0296,1.0296,1.0289,1.0297,1.03,1.0296,1.0324,1.0316,1.0319,1.033,1.0359,1.036,1.0362,1.0373,1.0376,1.0379,0,0,0,0,0,0,1.0251,1.0259,1.0257,1.0278,1.0285,1.0292,1.0303,1.03,1.0309,1.0308,1.0307,1.0309,1.0326,1.033,1.032,1.035,1.034,1.0343,1.0347,1.0351,1.0353,1.0352,1.031,0,0,0,0,0,1.0255,1.0267,1.0274,1.0292,1.0296,1.0299,1.0305,1.0305,1.0312,1.0315,1.032,1.0327,1.0337,1.0344,1.0354,1.0374,1.0376,1.0383,1.0386,1.0388,1.039,1.04,1.0404,1.0368,1.0368,1.0368,0,0,1.0265,1.0271,1.0279,1.0294,1.03,1.0312,1.0301,1.0315,1.0323,1.0317,1.0333,1.0337,1.0344,1.0363,1.0371,1.0367,1.04,1.039,1.0392,1.0392,1.0402,1.0406,1.0409,1.0369,1.0369,1.0369,0,0,1.0289,1.0295,1.031,1.0316,1.0325,1.0327,1.033,1.0338,1.034,1.0357,1.0352,1.0362,1.038,1.0386,1.0391,1.0416,1.0412,1.0419,1.0432,1.0443,1.0445,1.0448,1.0456,1.046,1.0421,1.0421,1.0422,0,1.03,1.0318,1.0318,1.0332,1.0338,1.0333,1.0348,1.0354,1.0365,1.037,1.0364,1.0386,1.0391,1.0411,1.0417,1.0422,1.0425,1.0419,1.0445,1.0448,1.045,1.0458,1.0461,1.0422,1.0422,1.0422,1.0422,0,1.0331,1.0343,1.0354,1.0366,1.0374,1.0388,1.0389,1.0397,1.0395,1.0398,1.0414,1.042,1.043,1.0435,1.0434,1.0454,1.0451,1.0445,1.0435,1.0454,1.0462,1.0465,1.0423,1.0423,1.0423,1.0423,0,0,1.0362,1.0373,1.0377,1.0382,1.0391,1.04,1.0414,1.0425,1.0431,1.0439,1.045,1.0465,1.046,1.0466,1.0465,1.0474,1.0493,1.0467,1.0467,1.0471,1.0515,1.0519,1.0523,1.049,1.0491,1.0491,1.0514,0,1.0386,1.041,1.041,1.0432,1.0444,1.0439,1.0451,1.0457,1.0459,1.0469,1.0471,1.0482,1.0474,1.0478,1.0486,1.0489,1.0502,1.0487,1.05,1.05,1.0498,1.0527,1.0531,1.0553,1.0517,1.0518,1.0518,0,1.0417,1.0427,1.045,1.0457,1.0462,1.0472,1.0482,1.0491,1.0498,1.0499,1.0505,1.0503,1.0516,1.0505,1.0523,1.0513,1.0518,1.052,1.0521,1.0522,1.051,1.0529,1.056,1.0563,1.0523,1.0523,1.0522,0,1.0437,1.0455,1.0471,1.0476,1.0484,1.0492,1.0496,1.0502,1.0508,1.0517,1.0521,1.053,1.0535,1.0542,1.0542,1.0535,1.056,1.055,1.0561,1.0561,1.0566,1.0566,1.0599,1.057,1.057,1.057,1.057,0,1.0464,1.0478,1.048,1.049,1.0506,1.0506,1.0521,1.0524,1.053,1.0539,1.0536,1.0545,1.0545,1.0554,1.0554,1.0568,1.057,1.0571,1.0571,1.0571,1.0571,1.0575,1.0573,1.057,1.057,1.057,1.057,0,1.0489,1.0491,1.0508,1.0515,1.0517,1.0528,1.0533,1.0542,1.0544,1.0557,1.056,1.0562,1.0573,1.0573,1.0586,1.0585,1.0603,1.0601,1.06,1.06,1.0611,1.061,1.0647,1.0652,1.062,1.062,1.0621,0,1.0506,1.0517,1.0525,1.0531,1.0535,1.0546,1.0553,1.0552,1.0559,1.0568,1.0575,1.0586,1.0594,1.0611,1.0614,1.0623,1.0621,1.0633,1.0622,1.0622,1.0621,1.062,1.0621,1.0635,1.0636,1.0636,1.0636,0,1.0536,1.0536,1.0546,1.0555,1.0563,1.0571,1.0578,1.0584,1.0584,1.0592,1.0603,1.0609,1.0622,1.0632,1.064,1.0644,1.064,1.064,1.0643,1.0643,1.0643,1.0643,1.0606,1.0639,1.0639,1.0638,1.0638,1.0638,1.0557,1.0566,1.0573,1.0584,1.0589,1.0596,1.0604,1.0607,1.0617,1.0627,1.0626,1.0638,1.0644,1.0655,1.0659,1.0668,1.0664,1.0668,1.067,1.0671,1.0672,1.0641,1.067,1.067,1.067,1.067,1.067,0,1.0586,1.059,1.06,1.061,1.0619,1.0615,1.0622,1.0629,1.064,1.0646,1.0654,1.0666,1.0676,1.0679,1.0688,1.0695,1.0693,1.0697,1.0697,1.0697,1.0675,1.0671,1.0698,1.0698,1.0698,1.0698,1.0698,1.0698,1.0602,1.0618,1.0619,1.0636,1.064,1.0652,1.0657,1.0663,1.0668,1.0682,1.069,1.0692,1.0696,1.0706,1.0714,1.0715,1.0718,1.0723,1.0723,1.0702,1.0699,1.0696,1.0693,1.0724,1.0724,1.0744,1.0745,1.0745]}]]